Regional Weather Roundup
Issued by NWS Nashville, TN

Home | Current Version | Previous Version | Text Only | Print | Product List | Glossary On
Versions: 1 2 3 4 5 6 7 8 9 10 11 12 13 14 15 16 17 18 19 20 21 22 23 24 25 26 27 28 29 30 31 32 33 34 35 36 37 38 39 40 41 42 43 44 45 46 47 48 49 50
000
ASUS44 KOHX 301210
RWROHX
MIDDLE TENNESSEE HOURLY WEATHER ROUNDUP
NATIONAL WEATHER SERVICE NASHVILLE TN
700 AM CDT SUN AUG 30 2015

NOTE: "FAIR" INDICATES FEW OR NO CLOUDS BELOW 12,000 FEET WITH
NO SIGNIFICANT WEATHER AND/OR OBSTRUCTIONS TO VISIBILITY.

* THESE REPORTS ARE NOT UNDER NWS QUALITY CONTROL AND MAY NOT
  REPORT WEATHER SUCH AS PRECIPITATION AND FOG.


TNZ005>011-023>034-057-059-062>066-078-080-301300
...NORTHERN MIDDLE TENNESSEE...

CITY           SKY/WX    TMP DP  RH WIND       PRES   REMARKS
CLARKSVILLE    PTCLDY    66  64  93 CALM      30.10R
CROSSVILLE     CLOUDY    69  62  78 CALM      30.18R
DICKSON        PTCLDY    66  64  94 S6        30.11R
LIVINGSTON     CLOUDY    71  62  73 CALM      30.16R
NASHVILLE      MOCLDY    70  65  84 CALM      30.12R
SMYRNA         PTCLDY    68  67  96 CALM      30.13R
$$
TNZ056-058-060-061-075>077-079-093>097-301300
...SOUTHERN MIDDLE TENNESSEE...

CITY           SKY/WX    TMP DP  RH WIND       PRES   REMARKS
COLUMBIA       CLEAR     64  64 100 CALM      30.10S
LEWISBURG      MOCLDY    66  65  97 CALM      30.11R
MCMINNVILLE    PTCLDY    68  68 100 CALM      30.14R
SHELBYVILLE    PTCLDY    70  70 100 CALM      30.13R
TULLAHOMA      CLEAR     70  66  88 CALM      30.14S
WINCHESTER     PTCLDY    70  63  78 S5        30.13R
$$


...KEY TO REMARKS...
VSB - VISIBILITY IN MILES
WCI - WIND CHILL INDEX
HX  - HEAT INDEX



USA.gov is the U.S. government's official web portal to all federal, state and local government web resources and services.